Flag for U.S.A. Weather past 2 weeks in Atascadero, California, U.S.A.

Now
60 °F

Clear.


Feels Like: 60 °F
Forecast: 53 / 83 °F
Wind: No wind

Location: Paso Robles Municipal Airport

Current Time: Oct 1, 2014 at 1:46:51 AM

Latest Report: Oct 1, 2014 at 12:53 AM


Visibility: 10 mi

Pressure: 29.81 "Hg

Humidity: 69%

Dew point: 50 °F

Location of AtascaderoLocation

Historic Weather in Atascadero — Graph

°F

Atascadero temperature yesterday

Maximum temperature yesterday: 87 °F (at 4:53 PM)
Minimum temperature yesterday: 55 °F (at 3:53 AM)
Average temperature yesterday: 67 °F

Past Weeks' High & Low Weather Summary

 TemperatureHumidityPressure
High103 °F (Sep 16, 3:53 PM)93% (Sep 20, 5:53 AM)30.04 "Hg (Sep 20, 5:53 AM)
Low48 °F (Sep 29, 6:53 AM)9% (Sep 16, 3:53 PM)29.73 "Hg (Sep 16, 5:53 PM)
Average68 °F61%29.90 "Hg
* Reported Sep 15 11:53 PM — Sep 30 11:53 PM, Atascadero, Weather by CustomWeather, © 2014

Note: Actual official high and low records may vary slightly from our data, if they occured in-between our weather recording intervals... More about our weather records

Advertising

Atascadero weather history for previous 24 hours

 ConditionsComfort  
Time TempWeatherWind HumidityBarometerVisibility
11:53 PM
Sep 30
62 °FClear.8 mph67%29.83 "Hg10 mi
10:53 PM63 °FClear.14 mph65%29.82 "Hg10 mi
9:53 PM64 °FClear.18 mph63%29.81 "Hg10 mi
8:53 PM67 °FClear.17 mph57%29.80 "Hg10 mi
7:53 PM71 °FClear.16 mph47%29.78 "Hg10 mi
6:53 PM75 °FSunny.13 mph40%29.78 "Hg10 mi
5:53 PM83 °FSunny.12 mph28%29.76 "Hg10 mi
4:53 PM87 °FSunny.8 mph22%29.77 "Hg10 mi
3:53 PM86 °FSunny.8 mph22%29.78 "Hg10 mi
2:53 PM84 °FSunny.6 mph26%29.81 "Hg10 mi
1:53 PM82 °FSunny.6 mph28%29.84 "Hg10 mi
12:53 PM78 °FSunny.7 mph36%29.88 "Hg10 mi
11:53 AM74 °FSunny.8 mph46%29.91 "Hg10 mi
10:53 AM67 °FSunny.7 mph63%29.94 "Hg10 mi
9:53 AM60 °FLow clouds.6 mph78%29.96 "Hg10 mi
8:53 AM57 °FFog.3 mph87%29.96 "Hg6 mi
8:02 AM56 °FFog.6 mph90%29.98 "Hg2 mi
7:53 AM56 °FFog.7 mph90%29.97 "Hg1 mi
6:53 AM56 °FFog.6 mph90%29.95 "Hg5 mi
5:52 AM56 °FFog.7 mph90%29.94 "Hg2 mi
4:53 AM56 °FLow clouds.No wind87%29.93 "Hg9 mi
3:53 AM55 °FClear.5 mph87%29.95 "Hg10 mi
2:53 AM57 °FClear.3 mph83%29.96 "Hg10 mi
1:53 AM57 °FClear.No wind81%29.96 "Hg10 mi
Weather by CustomWeather, © 2014

See weather overviewHow to use our weather pages